Location: �mondeville
(49.4591°N, 1.3431°W)
Time: 17:54:18
(UTC+00:00)

COSMOS 2428 - Pass Details

Date: 22 October 2019
Orbit: 844 x 857 km, 70.9° (Epoch: 13 November)

Event Time Altitude Azimuth Distance (km) Brightness Sun altitude
Exits shadow 04:41:33 28° 301° (WNW) 1,541 3.6 -19.4°
Maximum altitude 04:42:17 29° 315° (NW) 1,513 3.7 -19.3°
Drops below altitude 10° 04:47:11 10° 14° (NNE) 2,479 5.4 -18.5°
Sets 04:50:00 0° 26° (NNE) 3,419 6.3 -18.0°
